Weather Roundup
Issued by NWS Corpus Christi, TX

Home | Current Version | Previous Version | Text Only | Print | Product List | Glossary On
Versions: 1 2 3 4 5 6 7 8 9 10 11 12 13 14 15 16 17 18 19 20 21 22 23 24 25 26 27 28 29 30 31 32 33 34 35 36 37 38 39 40 41 42 43 44 45 46 47 48 49 50
000
ASUS44 KCRP 191810
HRRCRP

SOUTH TEXAS REGIONAL WEATHER ROUNDUP
NATIONAL WEATHER SERVICE CORPUS CHRISTI TX
100 PM CDT THU OCT 19 2017


TXZ229>244-191900-
...CORPUS CHRISTI AREA OBSERVATIONS...

CITY           SKY/WX    TMP DP  RH WIND       PRES   REMARKS
CORPUS CHRISTI CLOUDY    82  69  64 E13       30.07F
NAS CORPUS CHR NOT AVBL
ROCKPORT       CLOUDY    80  65  59 NE13      30.08F
KINGSVILLE ARP CLOUDY    83  69  63 E6        30.07F
KINGSVILLE NAS PTSUNNY   83  70  64 SE9       30.07F
ALICE          CLOUDY    81  66  60 E8        30.07F
$$

...VICTORIA AREA OBSERVATIONS...

CITY           SKY/WX    TMP DP  RH WIND       PRES   REMARKS
PORT LAVACA    CLOUDY    81  67  63 E13       30.10F
VICTORIA       PTSUNNY   85  63  47 VRB5      30.10F
BEEVILLE       CLOUDY    84  60  44 E7        30.09F
PLEASANTON     PTSUNNY   81  64  56 SE5       30.11F
SAN ANTONIO    PTSUNNY   78  63  59 SE13      30.13F
$$

...LAREDO AREA OBSERVATIONS...

CITY           SKY/WX    TMP DP  RH WIND       PRES   REMARKS
LAREDO         FAIR      82  64  54 SE13      30.07F
COTULLA        PTSUNNY   80  63  55 S6        30.08F
DEL RIO        FAIR      72  63  73 SE13      30.09F
MCALLEN        FAIR      86  67  52 E9        30.04F
HEBBRONVILLE   FAIR      81  62  52 S5        30.08F
$$

...OTHER TEXAS OBSERVATIONS...

CITY           SKY/WX    TMP DP  RH WIND       PRES   REMARKS
BROWNSVILLE    PTSUNNY   85  69  58 CALM      30.04F
HOUSTON        PTSUNNY   82  64  54 E9        30.12F
COL. STATION   FAIR      81  60  48 S6        30.13F
AUSTIN         PTSUNNY   78  63  59 VRB5      30.13F
WACO           FAIR      77  59  53 S9        30.15F
FORT WORTH     PTSUNNY   79  55  43 S10       30.14F
WICHITA FALLS  PTSUNNY   78  54  43 S12       30.12F
LUBBOCK        PTSUNNY   74  47  38 S13       30.10F
EL PASO        FAIR      77  51  40 SE10      30.08F
$$

...MARINE OBSERVATIONS...

STATION/POSITION TIME  SKY/WX   TEMP    WIND        PRES    VSBY  WAVE   SWELL
                                AIR SEA DIR/SP/G                  HT/PER HT/PER
                 (UTC)          (F)     (DEG/KT/KT) (MB)    (MI)  (FT/S) (FT/S)
PORT ARANSAS     NOT AVBL
BUOY 90 E PORT A 1650            81 82   60/ 16/ 19 1018.6          4/ 6   2/ 8
BUOY 200 E PT IS 1750            82 84  110/ 14/ 16 1016.9F         6/ 8   5/ 8
BUOY 15 E GALVES 1650            76 80   60/ 16/ 17 1020.4          3/ 6   2/ 8
$$



USA.gov is the U.S. government's official web portal to all federal, state and local government web resources and services.